Vorticity
3 2 3 4 4 5 4 4 6 6 2 4 3 2 2 2 2 3 3 4 5 6 5 2 3 2 5 1 3 4 5 4 8 8 4 4 3 2 3 4 6 5 4
9 1 4 4 4 4 4 4 5 6 4 3 3 3 2 2 3 3 5 3 4 8 7 5 3 4 3 4 1 4 3 5 4 5 6 6 6 6 5 3 2 3 3
9 4 4 4 3 3 3 4 6 6 7 4 4 3 3 3 3 4 4 4 4 10 7 4 7 4 4 3 3 3 3 3 4 6 5 3 1 1 4 5 4 4 3
-3 23 -4 7 6 4 4 3 5 7 7 4 3 4 1 4 4 3 5 5 4 9 7 5 6 6 4 4 5 4 3 4 3 5 5 6 5 4 4 5 7 9 10
-6 2 22 -3 -2 1 4 3 3 9 3 5 3 4 5 -4 3 3 5 5 5 6 8 5 6 5 6 6 7 6 6 7 7 6 7 8 8 9 9 8 8 6 5
4 4 -1 19 3 1 -2 -5 -11 4 2 7 5 4 5 6 -7 4 4 6 7 6 7 7 5 5 6 6 6 5 6 7 7 6 7 8 9 9 9 7 5 4 5
7 5 21 16 12 8 12 37 1 -4 10 7 5 5 0 5 24 -0 4 5 7 5 6 5 5 5 5 5 4 5 6 6 6 7 6 7 6 7 6 5 6 4 5
5 21 20 6 8 18 3 31 -7 2 9 7 6 4 4 4 2 6 4 3 7 6 5 6 4 6 5 4 4 4 5 5 5 7 7 5 5 6 4 3 4 4 5
-0 14 4 13 4 19 14 23 -6 1 6 7 4 5 3 6 4 6 4 4 -3 7 6 6 4 4 5 5 3 3 4 4 4 4 6 6 5 5 4 3 3 2 3
-21 38 8 7 -2 7 14 12 3 2 4 5 3 6 4 3 2 3 5 -4 -0 7 -0 5 4 4 3 5 5 3 4 4 4 3 3 4 5 5 4 4 4 4 4
-2 0 23 15 6 -3 13 19 6 6 5 4 4 1 2 -2 11 4 4 9 4 -1 6 9 4 4 4 3 2 3 2 3 3 4 5 4 4 4 4 4 4 4 4
-27 9 -1 -1 30 -4 7 4 3 -0 3 5 4 4 10 1 -11 -18 -3 5 4 6 5 3 5 1 -1 1 5 5 4 4 4 4 5 6 6 5 5 4 4 4 5
16 -2 4 -12 11 12 -9 6 12 14 1 4 7 2 4 11 8 17 3 4 3 5 6 5 4 1 15 -4 6 5 5 4 4 4 5 4 7 6 6 5 6 6 6
4 1 6 29 10 -14 16 -2 7 4 2 4 4 -2 3 3 2 10 2 4 2 4 5 9 0 3 3 3 -6 2 4 5 6 5 5 6 7 6 5 5 5 5 6
-2 -7 1 -20 16 10 15 19 -9 -5 6 2 1 -1 4 9 8 7 -4 1 -4 7 4 7 5 6 8 8 13 -9 8 5 1 6 5 7 7 7 9 4 6 6 6
20 6 2 22 -15 -3 -4 8 13 -5 5 10 -0 3 6 7 8 -2 3 23 -5 4 -1 6 6 4 3 4 3 7 10 -1 7 6 9 9 10 7 7 5 8 9 4
-3 11 16 -2 -20 28 37 17 19 15 17 5 -11 13 7 -0 5 6 8 -2 4 5 -3 9 3 5 4 6 5 7 -4 0 5 10 3 4 3 8 9 10 4 12 5
-6 9 31 12 -18 -23 14 28 21 10 3 18 1 -5 14 9 9 6 11 16 9 7 6 7 7 5 6 7 2 4 4 9 -5 9 8 -2 0 23 -1 3 7 10 -1
6 -4 6 15 -4 15 22 12 20 3 15 24 15 -0 12 11 26 1 17 12 8 5 17 4 4 7 12 5 6 4 -0 -1 7 16 6 -1 9 8 6 14 6 -4 17
10 16 26 10 19 17 25 14 14 24 12 -0 21 27 9 0 22 13 6 6 17 6 2 6 5 6 6 4 5 -5 5 9 5 1 -3 19 13 1 11 -2 -5 15 2
28 21 9 17 17 16 19 42 11 6 1 13 10 3 9 13 10 16 5 3 17 3 6 0 0 -0 6 3 -1 -3 -8 20 -0 3 -7 23 4 8 3 8 11 5 1
27 -2 13 8 9 1 -0 7 1 -3 -1 0 9 15 10 10 12 7 13 13 18 -3 4 -1 3 -0 1 2 0 5 11 7 9 3 20 10 20 6 3 14 3 0 3
18 20 14 13 10 8 -1 12 8 3 5 24 2 16 10 -1 11 8 10 14 19 8 6 4 7 11 16 13 0 2 10 10 6 16 12 13 5 8 8 -1 15 2 4
0 3 25 18 18 13 7 12 7 1 11 3 5 3 13 11 9 5 8 15 10 4 -4 14 17 6 5 11 10 2 0 7 21 13 15 5 7 12 1 13 -1 15 11
5 2 3 11 10 28 -8 5 4 13 19 -4 -11 11 4 10 13 7 11 8 18 25 17 19 13 13 12 17 10 3 22 11 14 5 1 -7 -2 -0 9 34 35 15 2
2 1 6 7 3 27 19 6 22 17 35 -16 5 17 5 -5 4 9 8 8 8 13 10 0 8 9 14 11 12 11 7 12 4 10 9 0 8 -1 21 11 6 4 2
Height
5809 5815 5820 5825 5830 5835 5839 5843 5848 5851 5854 5859 5861 5862 5865 5868 5870 5871 5872 5872 5874 5873 5874 5874 5874 5874 5873 5870 5870 5872 5872 5870 5868 5866 5865 5865 5864 5863 5862 5862 5860 5858 5857
5800 5807 5812 5818 5823 5829 5832 5839 5842 5845 5849 5853 5857 5860 5862 5865 5867 5867 5870 5869 5871 5870 5871 5871 5873 5872 5872 5870 5869 5869 5870 5870 5869 5867 5865 5864 5864 5863 5861 5859 5859 5857 5855
5792 5799 5804 5810 5815 5821 5826 5833 5836 5840 5845 5848 5852 5856 5859 5861 5863 5864 5866 5866 5868 5868 5869 5870 5871 5870 5871 5870 5868 5867 5868 5868 5868 5867 5865 5864 5863 5862 5860 5858 5856 5853 5852
5782 5787 5795 5802 5808 5815 5820 5825 5830 5834 5839 5843 5846 5851 5855 5857 5859 5861 5863 5863 5864 5865 5866 5867 5869 5868 5868 5867 5867 5865 5865 5866 5865 5864 5863 5862 5860 5858 5857 5855 5853 5850 5848
5772 5778 5785 5792 5800 5806 5813 5818 5824 5829 5833 5837 5841 5846 5850 5853 5855 5857 5859 5860 5861 5862 5862 5863 5865 5865 5866 5865 5866 5863 5862 5862 5862 5861 5860 5858 5857 5855 5853 5851 5850 5847 5845
5763 5768 5775 5783 5790 5797 5804 5810 5817 5823 5827 5833 5837 5841 5845 5850 5851 5854 5856 5857 5858 5859 5859 5861 5862 5862 5863 5862 5862 5862 5860 5858 5858 5858 5856 5855 5853 5851 5850 5849 5847 5845 5843
5753 5760 5766 5774 5782 5788 5796 5802 5809 5816 5822 5828 5832 5836 5839 5844 5846 5851 5851 5853 5855 5855 5856 5857 5858 5859 5859 5859 5859 5859 5857 5855 5855 5854 5852 5851 5850 5848 5847 5845 5843 5841 5838
5745 5752 5759 5766 5773 5778 5788 5794 5802 5810 5815 5821 5826 5829 5832 5839 5842 5846 5847 5849 5851 5852 5852 5854 5854 5855 5855 5856 5854 5854 5853 5852 5850 5850 5848 5846 5846 5843 5842 5841 5838 5836 5833
5735 5744 5752 5758 5765 5772 5779 5787 5795 5802 5809 5813 5817 5824 5826 5833 5835 5839 5841 5843 5846 5847 5848 5850 5851 5852 5851 5852 5851 5851 5850 5849 5847 5846 5845 5842 5840 5839 5837 5834 5832 5830 5826
5729 5736 5744 5750 5757 5766 5773 5779 5786 5793 5798 5805 5808 5815 5818 5825 5829 5833 5836 5838 5840 5843 5843 5846 5846 5847 5846 5847 5847 5846 5845 5844 5842 5841 5840 5838 5836 5834 5831 5828 5825 5822 5819
5718 5728 5736 5743 5751 5758 5765 5772 5778 5786 5790 5796 5802 5807 5811 5818 5823 5826 5829 5832 5834 5836 5838 5840 5841 5842 5841 5841 5841 5840 5839 5838 5836 5834 5833 5832 5830 5827 5824 5822 5818 5815 5811
5710 5719 5728 5735 5742 5749 5757 5764 5771 5777 5782 5787 5794 5799 5805 5810 5815 5818 5822 5825 5826 5829 5831 5832 5834 5835 5835 5835 5835 5833 5832 5831 5829 5828 5826 5824 5822 5820 5817 5813 5810 5806 5802
5703 5712 5720 5726 5735 5743 5748 5756 5763 5769 5774 5781 5786 5791 5796 5802 5806 5809 5814 5816 5818 5821 5823 5825 5826 5828 5829 5829 5829 5828 5825 5823 5821 5820 5818 5815 5814 5812 5809 5805 5801 5797 5793
5692 5703 5711 5718 5725 5732 5739 5747 5754 5761 5766 5771 5776 5782 5788 5793 5798 5802 5806 5808 5810 5813 5815 5817 5819 5820 5821 5822 5821 5820 5818 5816 5813 5811 5809 5806 5803 5801 5798 5795 5791 5787 5783
5684 5692 5701 5708 5716 5723 5731 5738 5744 5751 5757 5762 5768 5774 5779 5784 5790 5794 5796 5799 5802 5804 5806 5809 5810 5810 5812 5812 5812 5813 5811 5807 5805 5802 5799 5796 5794 5791 5787 5784 5780 5776 5771
5675 5683 5691 5698 5708 5714 5721 5729 5735 5742 5747 5752 5758 5763 5768 5774 5780 5784 5786 5788 5791 5794 5798 5799 5801 5801 5803 5804 5802 5803 5800 5798 5795 5792 5789 5787 5783 5780 5776 5773 5768 5765 5760
5664 5673 5681 5690 5697 5703 5711 5718 5726 5731 5737 5742 5747 5753 5757 5764 5770 5773 5776 5779 5782 5784 5788 5790 5791 5792 5793 5794 5793 5792 5791 5788 5786 5782 5779 5777 5772 5768 5765 5762 5757 5753 5749
5653 5661 5670 5678 5684 5693 5699 5708 5713 5719 5726 5731 5737 5743 5747 5752 5758 5762 5765 5768 5770 5773 5777 5780 5781 5782 5782 5782 5782 5781 5780 5779 5777 5773 5768 5764 5761 5756 5752 5750 5745 5741 5737
5641 5651 5659 5669 5677 5682 5689 5696 5702 5707 5713 5719 5725 5731 5737 5742 5747 5751 5754 5756 5758 5762 5766 5769 5771 5771 5771 5771 5770 5770 5769 5768 5765 5762 5757 5753 5750 5745 5742 5737 5734 5729 5724
5631 5641 5651 5657 5662 5669 5676 5684 5690 5696 5701 5707 5715 5722 5727 5733 5736 5740 5743 5745 5747 5752 5754 5757 5759 5760 5761 5760 5759 5759 5758 5755 5753 5749 5747 5743 5737 5733 5729 5724 5720 5715 5709
5623 5631 5638 5645 5651 5657 5666 5673 5679 5685 5691 5699 5705 5711 5717 5721 5724 5728 5732 5733 5737 5740 5744 5745 5746 5749 5750 5749 5747 5747 5745 5743 5741 5740 5735 5732 5726 5722 5717 5711 5706 5701 5694
5615 5621 5628 5633 5642 5650 5655 5663 5670 5677 5683 5690 5697 5701 5705 5710 5715 5718 5722 5724 5727 5730 5731 5733 5734 5736 5737 5736 5735 5735 5734 5732 5730 5728 5724 5721 5715 5713 5707 5699 5693 5688 5681
5607 5613 5620 5627 5634 5642 5648 5655 5661 5668 5676 5681 5687 5692 5697 5701 5705 5708 5711 5713 5717 5719 5719 5721 5722 5722 5722 5724 5724 5724 5721 5719 5718 5713 5712 5711 5707 5704 5697 5689 5681 5675 5668
5601 5608 5613 5620 5627 5635 5640 5646 5653 5659 5666 5673 5678 5683 5687 5691 5695 5697 5699 5702 5705 5708 5709 5709 5710 5710 5711 5711 5710 5709 5707 5706 5703 5700 5700 5698 5696 5694 5688 5678 5669 5661 5654
5595 5602 5607 5613 5619 5626 5632 5638 5642 5650 5657 5663 5668 5673 5677 5681 5684 5685 5688 5691 5693 5697 5697 5698 5698 5698 5699 5698 5698 5695 5693 5691 5691 5689 5688 5685 5683 5679 5675 5667 5655 5649 5642
5588 5595 5600 5607 5611 5618 5624 5629 5636 5644 5649 5654 5658 5661 5665 5670 5673 5677 5677 5679 5682 5683 5685 5687 5688 5688 5687 5687 5685 5682 5681 5679 5678 5677 5675 5672 5669 5665 5662 5658 5648 5639 5632